User: anonymous   Login
Location: Mentone
(34.5413°N, 85.5351°W)
Time: 17:20:43
(UTC-06:00)
Language:

Okean O Rocket - Orbit

View from above orbital plane
View from above orbital plane
View from above satellite
View from above satellite

Ground track
Ground track

The orbit data is extracted from the following two-line orbital elements,

1 25861U 99039B   16036.89100334  .00000155  00000-0  28591-4 0  9996
2 25861  98.0359   1.0599 0014452 241.7926 141.6577 14.78268346892301
Epoch (UTC): 05 February 2016 21:23:02
Eccentricity: 0.0014452
inclination: 98.0359°
perigee height: 624 km
apogee height: 645 km
right ascension of ascending node: 1.0599°
argument of perigee: 241.7926°
revolutions per day: 14.78268346
mean anomaly at epoch: 141.6577°
orbit number at epoch: 89230

The dashed part of the orbit path shows where the satellite is in the earth's shadow,  

DLR